Date,TemperatureHighF,TemperatureAvgF,TemperatureLowF,DewpointHighF,DewpointAvgF,DewpointLowF,HumidityHigh,HumidityAvg,HumidityLow,PressureMaxIn,PressureMinIn,WindSpeedMaxMPH,WindSpeedAvgMPH,GustSpeedMaxMPH,PrecipitationSumIn
2013-1-4,30.0,26.8,22.0,28.2,26.5,22.0,100,99,90,30.32,30.28,3,1,5,0.00
2013-1-5,45.0,32.1,20.0,33.7,27.5,20.0,100,85,56,30.34,30.10,9,2,11,0.00
2013-1-6,45.0,35.0,20.0,38.9,31.7,20.0,100,88,74,30.32,29.96,13,4,19,0.00
2013-1-7,31.0,22.7,19.0,28.7,22.7,19.0,100,100,91,30.41,30.19,0,0,0,0.00
2013-1-9,52.0,47.2,42.0,52.0,47.2,42.0,100,100,100,30.40,30.22,5,1,9,0.00
2013-1-10,46.0,41.6,39.0,46.0,41.6,39.0,100,100,100,30.39,30.24,9,3,11,0.02
2013-1-11,67.0,58.8,53.0,64.0,57.7,53.0,100,96,78,29.91,29.80,14,5,25,0.03
2013-1-12,64.0,59.7,54.0,64.0,59.7,54.0,100,100,100,29.94,29.73,15,4,18,0.00
2013-1-13,65.0,55.1,36.0,64.7,55.1,36.0,100,100,99,30.08,29.70,18,5,24,0.19
2013-1-14,36.0,30.1,26.0,36.0,30.1,26.0,100,100,100,30.34,30.08,14,3,14,0.00
2013-1-15,31.0,28.0,26.0,31.0,28.0,26.0,100,100,100,30.23,29.91,13,5,17,0.00
2013-1-16,31.0,31.0,31.0,31.0,31.0,31.0,100,100,100,29.98,29.89,0,0,0,0.00
2013-1-17,37.0,33.1,26.0,37.0,33.1,26.0,100,100,100,30.31,30.01,13,5,16,0.00
2013-1-18,33.0,30.3,17.0,32.0,28.7,17.0,100,94,79,30.46,30.23,7,2,9,0.00
2013-1-19,54.0,39.6,31.0,32.5,29.6,27.8,96,71,38,30.24,29.93,20,6,22,0.00
2013-1-20,46.0,39.5,21.0,36.0,23.4,12.1,100,57,30,30.12,29.97,12,3,14,0.00
2013-1-21,33.0,24.1,18.0,20.8,16.3,8.9,99,73,38,30.10,30.01,23,2,27,0.00
2013-1-22,22.0,15.4,9.0,7.3,3.1,0.1,82,59,40,30.32,30.23,9,2,16,0.00
2013-1-23,34.0,19.3,7.0,20.2,12.3,3.9,98,76,44,30.32,30.00,11,2,14,0.00
2013-1-24,25.0,20.5,14.0,23.0,9.4,2.3,100,64,39,30.46,30.08,16,5,17,0.00
2013-1-25,26.0,22.3,19.0,26.0,18.9,9.2,100,88,63,30.31,29.98,11,2,14,0.00
2013-1-26,40.0,28.8,21.0,34.0,25.4,20.1,100,89,57,30.28,30.13,8,2,10,0.00
2013-1-27,42.0,40.4,39.0,42.0,40.2,36.2,100,99,83,30.17,30.10,7,4,11,0.00
2013-1-28,56.0,48.8,42.0,53.0,47.8,41.7,100,97,82,30.10,29.98,15,6,21,0.00
2013-1-29,67.0,60.1,50.0,64.7,59.1,50.0,100,97,79,29.99,29.52,20,9,29,0.00
2013-1-30,68.0,55.6,33.0,66.0,55.1,33.0,100,98,89,29.53,29.25,29,10,53,0.16
2013-1-31,30.0,25.8,17.0,30.0,25.6,17.0,100,99,85,30.01,29.82,15,6,22,0.00